"Datum/tijd (MEZT)";"verwachting, vectrale stroom km/u"
2024-04-18 01:00;2.304
2024-04-18 01:10;2.268
2024-04-18 01:20;2.232
2024-04-18 01:30;2.232
2024-04-18 01:40;2.196
2024-04-18 01:50;2.196
2024-04-18 02:00;2.196
2024-04-18 02:10;2.232
2024-04-18 02:20;2.232
2024-04-18 02:30;2.232
2024-04-18 02:40;2.232
2024-04-18 02:50;2.268
2024-04-18 03:00;2.268
2024-04-18 03:10;2.268
2024-04-18 03:20;2.304
2024-04-18 03:30;2.304
2024-04-18 03:40;2.34
2024-04-18 03:50;2.34
2024-04-18 04:00;2.376
2024-04-18 04:10;2.376
2024-04-18 04:20;2.412
2024-04-18 04:30;2.412
2024-04-18 04:40;2.412
2024-04-18 04:50;2.412
2024-04-18 05:00;2.448
2024-04-18 05:10;2.448
2024-04-18 05:20;2.448
2024-04-18 05:30;2.448
2024-04-18 05:40;2.448
2024-04-18 05:50;2.448
2024-04-18 06:00;2.448
2024-04-18 06:10;2.448
2024-04-18 06:20;2.448
2024-04-18 06:30;2.448
2024-04-18 06:40;2.484
2024-04-18 06:50;2.484
2024-04-18 07:00;2.484
2024-04-18 07:10;2.484
2024-04-18 07:20;2.484
2024-04-18 07:30;2.484
2024-04-18 07:40;2.484
2024-04-18 07:50;2.484
2024-04-18 08:00;2.484
2024-04-18 08:10;2.52
2024-04-18 08:20;2.52
2024-04-18 08:30;2.52
2024-04-18 08:40;2.52
2024-04-18 08:50;2.52
2024-04-18 09:00;2.52
2024-04-18 09:10;2.52
2024-04-18 09:20;2.52
2024-04-18 09:30;2.52
2024-04-18 09:40;2.556
2024-04-18 09:50;2.556
2024-04-18 10:00;2.556
2024-04-18 10:10;2.556
2024-04-18 10:20;2.556
2024-04-18 10:30;2.556
2024-04-18 10:40;2.556
2024-04-18 10:50;2.556
2024-04-18 11:00;2.556
2024-04-18 11:10;2.556
2024-04-18 11:20;2.556
2024-04-18 11:30;2.556
2024-04-18 11:40;2.556
2024-04-18 11:50;2.52
2024-04-18 12:00;2.52
2024-04-18 12:10;2.52
2024-04-18 12:20;2.484
2024-04-18 12:30;2.448
2024-04-18 12:40;2.412
2024-04-18 12:50;2.376
2024-04-18 13:00;2.34
2024-04-18 13:10;2.268
2024-04-18 13:20;2.196
2024-04-18 13:30;2.16
2024-04-18 13:40;2.124
2024-04-18 13:50;2.088
2024-04-18 14:00;2.088
2024-04-18 14:10;2.088
2024-04-18 14:20;2.088
2024-04-18 14:30;2.088
2024-04-18 14:40;2.124
2024-04-18 14:50;2.124
2024-04-18 15:00;2.124
2024-04-18 15:10;2.124
2024-04-18 15:20;2.16
2024-04-18 15:30;2.16
2024-04-18 15:40;2.196
2024-04-18 15:50;2.196
2024-04-18 16:00;2.196
2024-04-18 16:10;2.232
2024-04-18 16:20;2.232
2024-04-18 16:30;2.232
2024-04-18 16:40;2.232
2024-04-18 16:50;2.268
2024-04-18 17:00;2.268
2024-04-18 17:10;2.268
2024-04-18 17:20;2.304
2024-04-18 17:30;2.304
2024-04-18 17:40;2.34
2024-04-18 17:50;2.34
2024-04-18 18:00;2.34
2024-04-18 18:10;2.376
2024-04-18 18:20;2.376
2024-04-18 18:30;2.376
2024-04-18 18:40;2.376
2024-04-18 18:50;2.376
2024-04-18 19:00;2.376
2024-04-18 19:10;2.412
2024-04-18 19:20;2.412
2024-04-18 19:30;2.412
2024-04-18 19:40;2.412
2024-04-18 19:50;2.412
2024-04-18 20:00;2.412
2024-04-18 20:10;2.412
2024-04-18 20:20;2.412
2024-04-18 20:30;2.448
2024-04-18 20:40;2.448
2024-04-18 20:50;2.448
2024-04-18 21:00;2.448
2024-04-18 21:10;2.448
2024-04-18 21:20;2.448
2024-04-18 21:30;2.448
2024-04-18 21:40;2.448
2024-04-18 21:50;2.448
2024-04-18 22:00;2.448
2024-04-18 22:10;2.448
2024-04-18 22:20;2.448
2024-04-18 22:30;2.448
2024-04-18 22:40;2.448
2024-04-18 22:50;2.448
2024-04-18 23:00;2.448
2024-04-18 23:10;2.448
2024-04-18 23:20;2.448
2024-04-18 23:30;2.448
2024-04-18 23:40;2.448
2024-04-18 23:50;2.448
2024-04-19 00:00;2.448
2024-04-19 00:10;2.448
2024-04-19 00:20;2.448
2024-04-19 00:30;2.448
2024-04-19 00:40;2.448
2024-04-19 00:50;2.448
2024-04-19 01:00;2.448
2024-04-19 01:10;2.412
2024-04-19 01:20;2.412
2024-04-19 01:30;2.376
2024-04-19 01:40;2.34
2024-04-19 01:50;2.268
2024-04-19 02:00;2.196
2024-04-19 02:10;2.124
2024-04-19 02:20;2.016
2024-04-19 02:30;1.944
2024-04-19 02:40;1.908
2024-04-19 02:50;1.872
2024-04-19 03:00;1.872
2024-04-19 03:10;1.908
2024-04-19 03:20;1.908
2024-04-19 03:30;1.944
2024-04-19 03:40;1.98
2024-04-19 03:50;2.016
2024-04-19 04:00;2.052
2024-04-19 04:10;2.052
2024-04-19 04:20;2.088
2024-04-19 04:30;2.124
2024-04-19 04:40;2.124
2024-04-19 04:50;2.16
2024-04-19 05:00;2.16
2024-04-19 05:10;2.196
2024-04-19 05:20;2.232
2024-04-19 05:30;2.232
2024-04-19 05:40;2.268
2024-04-19 05:50;2.268
2024-04-19 06:00;2.304
2024-04-19 06:10;2.304
2024-04-19 06:20;2.34
2024-04-19 06:30;2.34
2024-04-19 06:40;2.34
2024-04-19 06:50;2.376
2024-04-19 07:00;2.376
2024-04-19 07:10;2.376
2024-04-19 07:20;2.376
2024-04-19 07:30;2.376
2024-04-19 07:40;2.376
2024-04-19 07:50;2.376
2024-04-19 08:00;2.34
2024-04-19 08:10;2.376
2024-04-19 08:20;2.376
2024-04-19 08:30;2.376
2024-04-19 08:40;2.376
2024-04-19 08:50;2.376
2024-04-19 09:00;2.376
2024-04-19 09:10;2.376
2024-04-19 09:20;2.376
2024-04-19 09:30;2.376
2024-04-19 09:40;2.376
2024-04-19 09:50;2.376
2024-04-19 10:00;2.376
2024-04-19 10:10;2.376
2024-04-19 10:20;2.412
2024-04-19 10:30;2.412
2024-04-19 10:40;2.412
2024-04-19 10:50;2.412
2024-04-19 11:00;2.412
2024-04-19 11:10;2.412
2024-04-19 11:20;2.412
2024-04-19 11:30;2.412
2024-04-19 11:40;2.412
2024-04-19 11:50;2.412
2024-04-19 12:00;2.412
2024-04-19 12:10;2.412
2024-04-19 12:20;2.412
2024-04-19 12:30;2.376
2024-04-19 12:40;2.376
2024-04-19 12:50;2.34
2024-04-19 13:00;2.376
2024-04-19 13:10;2.304
2024-04-19 13:20;2.232
2024-04-19 13:30;2.16
2024-04-19 13:40;2.088
2024-04-19 13:50;2.052
2024-04-19 14:00;2.016
2024-04-19 14:10;1.98
2024-04-19 14:20;1.98
2024-04-19 14:30;1.944
2024-04-19 14:40;1.944
2024-04-19 14:50;1.944
2024-04-19 15:00;1.944
2024-04-19 15:10;1.908
2024-04-19 15:20;1.908
2024-04-19 15:30;1.908
2024-04-19 15:40;1.908
2024-04-19 15:50;1.908
2024-04-19 16:00;1.908
2024-04-19 16:10;1.908
2024-04-19 16:20;1.908
2024-04-19 16:30;1.908
2024-04-19 16:40;1.908
2024-04-19 16:50;1.908
2024-04-19 17:00;1.908
2024-04-19 17:10;1.908
2024-04-19 17:20;1.944
2024-04-19 17:30;1.944
2024-04-19 17:40;1.944
2024-04-19 17:50;1.944
2024-04-19 18:00;1.944
2024-04-19 18:10;1.944
2024-04-19 18:20;1.944
2024-04-19 18:30;1.944
2024-04-19 18:40;1.98
2024-04-19 18:50;2.016
2024-04-19 19:00;2.016
2024-04-19 19:10;2.052
2024-04-19 19:20;2.088
2024-04-19 19:30;2.124
2024-04-19 19:40;2.124
2024-04-19 19:50;2.16
2024-04-19 20:00;2.196
2024-04-19 20:10;2.196
2024-04-19 20:20;2.232
2024-04-19 20:30;2.268
2024-04-19 20:40;2.268
2024-04-19 20:50;2.304
2024-04-19 21:00;2.304
2024-04-19 21:10;2.304
2024-04-19 21:20;2.34
2024-04-19 21:30;2.34
2024-04-19 21:40;2.34
2024-04-19 21:50;2.34
2024-04-19 22:00;2.34
2024-04-19 22:10;2.34
2024-04-19 22:20;2.34
2024-04-19 22:30;2.34
2024-04-19 22:40;2.34
2024-04-19 22:50;2.34
2024-04-19 23:00;2.34
2024-04-19 23:10;2.376
2024-04-19 23:20;2.376
2024-04-19 23:30;2.376
2024-04-19 23:40;2.376
2024-04-19 23:50;2.376
2024-04-20 00:00;2.376
2024-04-20 00:10;2.376
2024-04-20 00:20;2.376
2024-04-20 00:30;2.376
2024-04-20 00:40;2.376
2024-04-20 00:50;2.376
2024-04-20 01:00;2.376
2024-04-20 01:10;2.376
2024-04-20 01:20;2.376
2024-04-20 01:30;2.34
2024-04-20 01:40;2.34
2024-04-20 01:50;2.34
2024-04-20 02:00;2.34
2024-04-20 02:10;2.304
2024-04-20 02:20;2.304
2024-04-20 02:30;2.268
2024-04-20 02:40;2.232
2024-04-20 02:50;2.16
2024-04-20 03:00;2.124
2024-04-20 03:10;2.052
2024-04-20 03:20;2.016
2024-04-20 03:30;1.98
2024-04-20 03:40;1.944
2024-04-20 03:50;1.944
2024-04-20 04:00;1.908
2024-04-20 04:10;1.908
2024-04-20 04:20;1.908
2024-04-20 04:30;1.908
2024-04-20 04:40;1.944
2024-04-20 04:50;1.944
2024-04-20 05:00;1.98
2024-04-20 05:10;1.98
2024-04-20 05:20;2.016
2024-04-20 05:30;2.052
2024-04-20 05:40;2.088
2024-04-20 05:50;2.088
2024-04-20 06:00;2.124
2024-04-20 06:10;2.16
2024-04-20 06:20;2.196
2024-04-20 06:30;2.196
2024-04-20 06:40;2.232
2024-04-20 06:50;2.268
2024-04-20 07:00;2.268
2024-04-20 07:10;2.304
2024-04-20 07:20;2.304
2024-04-20 07:30;2.34
2024-04-20 07:40;2.34
2024-04-20 07:50;2.34
2024-04-20 08:00;2.34
2024-04-20 08:10;2.34
2024-04-20 08:20;2.376
2024-04-20 08:30;2.376
2024-04-20 08:40;2.376
2024-04-20 08:50;2.376
2024-04-20 09:00;2.376
2024-04-20 09:10;2.376
2024-04-20 09:20;2.376
2024-04-20 09:30;2.412
2024-04-20 09:40;2.412
2024-04-20 09:50;2.412
2024-04-20 10:00;2.412
2024-04-20 10:10;2.412
2024-04-20 10:20;2.412
2024-04-20 10:30;2.412
2024-04-20 10:40;2.412
2024-04-20 10:50;2.412
2024-04-20 11:00;2.412
2024-04-20 11:10;2.412
2024-04-20 11:20;2.448
2024-04-20 11:30;2.448
2024-04-20 11:40;2.448
2024-04-20 11:50;2.448
2024-04-20 12:00;2.448
2024-04-20 12:10;2.448
2024-04-20 12:20;2.448
2024-04-20 12:30;2.484
2024-04-20 12:40;2.484
2024-04-20 12:50;2.484
2024-04-20 13:00;2.484
2024-04-20 13:10;2.484
2024-04-20 13:20;2.484
2024-04-20 13:30;2.484
2024-04-20 13:40;2.484
2024-04-20 13:50;2.484
2024-04-20 14:00;2.484
2024-04-20 14:10;2.484
2024-04-20 14:20;2.484
2024-04-20 14:30;2.448
2024-04-20 14:40;2.448
2024-04-20 14:50;2.412
2024-04-20 15:00;2.376
2024-04-20 15:10;2.34
2024-04-20 15:20;2.304
2024-04-20 15:30;2.196
2024-04-20 15:40;2.124
2024-04-20 15:50;2.052
2024-04-20 16:00;1.98
2024-04-20 16:10;1.98
2024-04-20 16:20;1.98
2024-04-20 16:30;1.98
2024-04-20 16:40;1.98
2024-04-20 16:50;1.98
2024-04-20 17:00;2.016
2024-04-20 17:10;2.016
2024-04-20 17:20;2.052
2024-04-20 17:30;2.088
2024-04-20 17:40;2.088
2024-04-20 17:50;2.124
2024-04-20 18:00;2.16
2024-04-20 18:10;2.196
2024-04-20 18:20;2.196
2024-04-20 18:30;2.232
2024-04-20 18:40;2.268
2024-04-20 18:50;2.268
2024-04-20 19:00;2.304
2024-04-20 19:10;2.304
2024-04-20 19:20;2.34
2024-04-20 19:30;2.34
2024-04-20 19:40;2.376
2024-04-20 19:50;2.376
2024-04-20 20:00;2.412
2024-04-20 20:10;2.412
2024-04-20 20:20;2.412
2024-04-20 20:30;2.412
2024-04-20 20:40;2.412
2024-04-20 20:50;2.448
2024-04-20 21:00;2.448
2024-04-20 21:10;2.448
2024-04-20 21:20;2.448
2024-04-20 21:30;2.448
2024-04-20 21:40;2.448
2024-04-20 21:50;2.448
2024-04-20 22:00;2.448
2024-04-20 22:10;2.448
2024-04-20 22:20;2.484
2024-04-20 22:30;2.484
2024-04-20 22:40;2.484
2024-04-20 22:50;2.484
2024-04-20 23:00;2.484
2024-04-20 23:10;2.484
2024-04-20 23:20;2.484
2024-04-20 23:30;2.484
2024-04-20 23:40;2.484
2024-04-20 23:50;2.484
2024-04-21 00:00;2.484
2024-04-21 00:10;2.484
2024-04-21 00:20;2.52
2024-04-21 00:30;2.52
2024-04-21 00:40;2.52
2024-04-21 00:50;2.52
2024-04-21 01:00;2.52
2024-04-21 01:10;2.52
2024-04-21 01:20;2.556
2024-04-21 01:30;2.556
2024-04-21 01:40;2.556
2024-04-21 01:50;2.556
2024-04-21 02:00;2.556
2024-04-21 02:10;2.556
2024-04-21 02:20;2.556
2024-04-21 02:30;2.556
2024-04-21 02:40;2.556
2024-04-21 02:50;2.556
2024-04-21 03:00;2.556
2024-04-21 03:10;2.52
2024-04-21 03:20;2.52
2024-04-21 03:30;2.484
2024-04-21 03:40;2.484
2024-04-21 03:50;2.412
2024-04-21 04:00;2.34
2024-04-21 04:10;2.268
2024-04-21 04:20;2.16
2024-04-21 04:30;2.124
2024-04-21 04:40;2.088
2024-04-21 04:50;2.088
2024-04-21 05:00;2.088
2024-04-21 05:10;2.124
2024-04-21 05:20;2.088
2024-04-21 05:30;2.124
2024-04-21 05:40;2.16
2024-04-21 05:50;2.196
2024-04-21 06:00;2.232
2024-04-21 06:10;2.268
2024-04-21 06:20;2.304
2024-04-21 06:30;2.304
2024-04-21 06:40;2.34
2024-04-21 06:50;2.376
2024-04-21 07:00;2.376
2024-04-21 07:10;2.412
2024-04-21 07:20;2.448
2024-04-21 07:30;2.484
2024-04-21 07:40;2.484
2024-04-21 07:50;2.52
2024-04-21 08:00;2.52
2024-04-21 08:10;2.556
2024-04-21 08:20;2.556
2024-04-21 08:30;2.556
2024-04-21 08:40;2.556
2024-04-21 08:50;2.556
2024-04-21 09:00;2.556
2024-04-21 09:10;2.556
2024-04-21 09:20;2.556
2024-04-21 09:30;2.556
2024-04-21 09:40;2.556
2024-04-21 09:50;2.592
2024-04-21 10:00;2.592
2024-04-21 10:10;2.592
2024-04-21 10:20;2.592
2024-04-21 10:30;2.592
2024-04-21 10:40;2.592
2024-04-21 10:50;2.592
2024-04-21 11:00;2.628
2024-04-21 11:10;2.628
2024-04-21 11:20;2.628
2024-04-21 11:30;2.628
2024-04-21 11:40;2.628
2024-04-21 11:50;2.628
2024-04-21 12:00;2.628
2024-04-21 12:10;2.628
2024-04-21 12:20;2.628
2024-04-21 12:30;2.628
2024-04-21 12:40;2.664
2024-04-21 12:50;2.664
2024-04-21 13:00;2.664
2024-04-21 13:10;2.664
2024-04-21 13:20;2.664
2024-04-21 13:30;2.7
2024-04-21 13:40;2.7
2024-04-21 13:50;2.7
2024-04-21 14:00;2.7
2024-04-21 14:10;2.7
2024-04-21 14:20;2.7
2024-04-21 14:30;2.7
2024-04-21 14:40;2.7
2024-04-21 14:50;2.7
2024-04-21 15:00;2.7
2024-04-21 15:10;2.7
2024-04-21 15:20;2.7
2024-04-21 15:30;2.664
2024-04-21 15:40;2.628
2024-04-21 15:50;2.592
2024-04-21 16:00;2.556
2024-04-21 16:10;2.448
2024-04-21 16:20;2.376
2024-04-21 16:30;2.304
2024-04-21 16:40;2.268
2024-04-21 16:50;2.232
2024-04-21 17:00;2.268
2024-04-21 17:10;2.268
2024-04-21 17:20;2.268
2024-04-21 17:30;2.304
2024-04-21 17:40;2.34
2024-04-21 17:50;2.34
2024-04-21 18:00;2.376
2024-04-21 18:10;2.412
2024-04-21 18:20;2.448
2024-04-21 18:30;2.448
2024-04-21 18:40;2.484
2024-04-21 18:50;2.484
2024-04-21 19:00;2.52
2024-04-21 19:10;2.52
2024-04-21 19:20;2.556
2024-04-21 19:30;2.556
2024-04-21 19:40;2.592
2024-04-21 19:50;2.592
2024-04-21 20:00;2.628
2024-04-21 20:10;2.628
2024-04-21 20:20;2.628
2024-04-21 20:30;2.664
2024-04-21 20:40;2.664
2024-04-21 20:50;2.664
2024-04-21 21:00;2.664
2024-04-21 21:10;2.7
2024-04-21 21:20;2.7
2024-04-21 21:30;2.7
2024-04-21 21:40;2.7
2024-04-21 21:50;2.7
2024-04-21 22:00;2.736
2024-04-21 22:10;2.736
2024-04-21 22:20;2.736
2024-04-21 22:30;2.736
2024-04-21 22:40;2.736
2024-04-21 22:50;2.736
2024-04-21 23:00;2.736
2024-04-21 23:10;2.736
2024-04-21 23:20;2.772
2024-04-21 23:30;2.772
2024-04-21 23:40;2.772
2024-04-21 23:50;2.772
2024-04-22 00:00;2.772
2024-04-22 00:10;2.772
2024-04-22 00:20;2.772
2024-04-22 00:30;2.808
2024-04-22 00:40;2.808
2024-04-22 00:50;2.808
2024-04-22 01:00;2.808
2024-04-22 01:10;2.808
2024-04-22 01:20;2.844
2024-04-22 01:30;2.844
2024-04-22 01:40;2.844
2024-04-22 01:50;2.844
2024-04-22 02:00;2.844
2024-04-22 02:10;2.844
2024-04-22 02:20;2.844
2024-04-22 02:30;2.88
2024-04-22 02:40;2.88
2024-04-22 02:50;2.88
2024-04-22 03:00;2.88
2024-04-22 03:10;2.88
2024-04-22 03:20;2.88
2024-04-22 03:30;2.88
2024-04-22 03:40;2.88
2024-04-22 03:50;2.844
2024-04-22 04:00;2.844
2024-04-22 04:10;2.808
2024-04-22 04:20;2.808
2024-04-22 04:30;2.772
2024-04-22 04:40;2.7
2024-04-22 04:50;2.628
2024-04-22 05:00;2.556
2024-04-22 05:10;2.52
2024-04-22 05:20;2.484
2024-04-22 05:30;2.484
2024-04-22 05:40;2.484
2024-04-22 05:50;2.484
2024-04-22 06:00;2.52
2024-04-22 06:10;2.52
2024-04-22 06:20;2.556
2024-04-22 06:30;2.592
2024-04-22 06:40;2.592
2024-04-22 06:50;2.628
2024-04-22 07:00;2.628
2024-04-22 07:10;2.664
2024-04-22 07:20;2.664
2024-04-22 07:30;2.7
2024-04-22 07:40;2.7
2024-04-22 07:50;2.736
2024-04-22 08:00;2.736
2024-04-22 08:10;2.772
2024-04-22 08:20;2.808
2024-04-22 08:30;2.808
2024-04-22 08:40;2.808
2024-04-22 08:50;2.844
2024-04-22 09:00;2.844
2024-04-22 09:10;2.844
2024-04-22 09:20;2.844
2024-04-22 09:30;2.844
2024-04-22 09:40;2.88
2024-04-22 09:50;2.88
2024-04-22 10:00;2.88
2024-04-22 10:10;2.88
2024-04-22 10:20;2.88
2024-04-22 10:30;2.88
2024-04-22 10:40;2.916
2024-04-22 10:50;2.916
2024-04-22 11:00;2.916
2024-04-22 11:10;2.916
2024-04-22 11:20;2.916
2024-04-22 11:30;2.916
2024-04-22 11:40;2.916
2024-04-22 11:50;2.916
2024-04-22 12:00;2.916
2024-04-22 12:10;2.916
2024-04-22 12:20;2.952
2024-04-22 12:30;2.952
2024-04-22 12:40;2.952
2024-04-22 12:50;2.952
2024-04-22 13:00;2.952
2024-04-22 13:10;2.952
2024-04-22 13:20;2.988
2024-04-22 13:30;2.988
2024-04-22 13:40;2.988
2024-04-22 13:50;2.988
2024-04-22 14:00;2.988
2024-04-22 14:10;2.988
2024-04-22 14:20;3.024
2024-04-22 14:30;3.024
2024-04-22 14:40;3.024
2024-04-22 14:50;3.024
2024-04-22 15:00;3.024
2024-04-22 15:10;3.024
2024-04-22 15:20;3.024
2024-04-22 15:30;3.024
2024-04-22 15:40;2.988
2024-04-22 15:50;2.988
2024-04-22 16:00;2.988
2024-04-22 16:10;2.952
2024-04-22 16:20;2.88
2024-04-22 16:30;2.844
2024-04-22 16:40;2.736
2024-04-22 16:50;2.664
2024-04-22 17:00;2.592
2024-04-22 17:10;2.556
2024-04-22 17:20;2.556
2024-04-22 17:30;2.52
2024-04-22 17:40;2.52
2024-04-22 17:50;2.556
2024-04-22 18:00;2.556
2024-04-22 18:10;2.556
2024-04-22 18:20;2.592
2024-04-22 18:30;2.592
2024-04-22 18:40;2.628
2024-04-22 18:50;2.628
2024-04-22 19:00;2.664
2024-04-22 19:10;2.664
2024-04-22 19:20;2.7
2024-04-22 19:30;2.7
2024-04-22 19:40;2.7
2024-04-22 19:50;2.736
2024-04-22 20:00;2.736
2024-04-22 20:10;2.772
2024-04-22 20:20;2.772
2024-04-22 20:30;2.808
2024-04-22 20:40;2.844
2024-04-22 20:50;2.844
2024-04-22 21:00;2.88
2024-04-22 21:10;2.88
2024-04-22 21:20;2.88
2024-04-22 21:30;2.88
2024-04-22 21:40;2.916
2024-04-22 21:50;2.916
2024-04-22 22:00;2.916
2024-04-22 22:10;2.916
2024-04-22 22:20;2.916
2024-04-22 22:30;2.952
2024-04-22 22:40;2.952
2024-04-22 22:50;2.952
2024-04-22 23:00;2.952
2024-04-22 23:10;2.952
2024-04-22 23:20;2.952
2024-04-22 23:30;2.952
2024-04-22 23:40;2.952
2024-04-22 23:50;2.952
2024-04-23 00:00;2.988
2024-04-23 00:10;2.988
2024-04-23 00:20;2.988
2024-04-23 00:30;2.988
2024-04-23 00:40;2.988
2024-04-23 00:50;2.988
2024-04-23 01:00;2.988
2024-04-23 01:10;2.988
2024-04-23 01:20;3.024
2024-04-23 01:30;3.024
2024-04-23 01:40;3.024
2024-04-23 01:50;3.024
2024-04-23 02:00;3.024
2024-04-23 02:10;3.024
2024-04-23 02:20;3.06
2024-04-23 02:30;3.06
2024-04-23 02:40;3.06
2024-04-23 02:50;3.06
2024-04-23 03:00;3.06
2024-04-23 03:10;3.06
2024-04-23 03:20;3.06
2024-04-23 03:30;3.06
2024-04-23 03:40;3.06
2024-04-23 03:50;3.06
2024-04-23 04:00;3.06
2024-04-23 04:10;3.06
2024-04-23 04:20;3.024
2024-04-23 04:30;2.988
2024-04-23 04:40;2.952
2024-04-23 04:50;2.88
2024-04-23 05:00;2.808
2024-04-23 05:10;2.736
2024-04-23 05:20;2.664
2024-04-23 05:30;2.628
2024-04-23 05:40;2.592
2024-04-23 05:50;2.592
2024-04-23 06:00;2.592
2024-04-23 06:10;2.592
2024-04-23 06:20;2.628
2024-04-23 06:30;2.628
2024-04-23 06:40;2.664
2024-04-23 06:50;2.664
2024-04-23 07:00;2.7
2024-04-23 07:10;2.736
2024-04-23 07:20;2.736
2024-04-23 07:30;2.772
2024-04-23 07:40;2.772
2024-04-23 07:50;2.808
2024-04-23 08:00;2.808
2024-04-23 08:10;2.844
2024-04-23 08:20;2.844
2024-04-23 08:30;2.88
2024-04-23 08:40;2.88
2024-04-23 08:50;2.916
2024-04-23 09:00;2.916
2024-04-23 09:10;2.952
2024-04-23 09:20;2.952
2024-04-23 09:30;2.988
2024-04-23 09:40;2.988
2024-04-23 09:50;2.988
2024-04-23 10:00;3.024
2024-04-23 10:10;3.024
2024-04-23 10:20;3.024
2024-04-23 10:30;3.024
2024-04-23 10:40;3.024
2024-04-23 10:50;3.06
2024-04-23 11:00;3.06
2024-04-23 11:10;3.06
2024-04-23 11:20;3.06
2024-04-23 11:30;3.06
2024-04-23 11:40;3.06
2024-04-23 11:50;3.096
2024-04-23 12:00;3.096
2024-04-23 12:10;3.096
2024-04-23 12:20;3.096
2024-04-23 12:30;3.096
2024-04-23 12:40;3.096
2024-04-23 12:50;3.096
2024-04-23 13:00;3.096
2024-04-23 13:10;3.096
2024-04-23 13:20;3.132
2024-04-23 13:30;3.132
2024-04-23 13:40;3.132
2024-04-23 13:50;3.132
2024-04-23 14:00;3.132
2024-04-23 14:10;3.132
2024-04-23 14:20;3.168
2024-04-23 14:30;3.168
2024-04-23 14:40;3.168
2024-04-23 14:50;3.168
2024-04-23 15:00;3.168
2024-04-23 15:10;3.168
2024-04-23 15:20;3.168
2024-04-23 15:30;3.168
2024-04-23 15:40;3.168
2024-04-23 15:50;3.168
2024-04-23 16:00;3.168
2024-04-23 16:10;3.132
2024-04-23 16:20;3.132
2024-04-23 16:30;3.096
2024-04-23 16:40;3.06
2024-04-23 16:50;2.988
2024-04-23 17:00;2.916
2024-04-23 17:10;2.844
2024-04-23 17:20;2.772
2024-04-23 17:30;2.736
2024-04-23 17:40;2.7
2024-04-23 17:50;2.664
2024-04-23 18:00;2.664
2024-04-23 18:10;2.664
2024-04-23 18:20;2.664
2024-04-23 18:30;2.664
2024-04-23 18:40;2.664
2024-04-23 18:50;2.7
2024-04-23 19:00;2.7
2024-04-23 19:10;2.736
2024-04-23 19:20;2.772
2024-04-23 19:30;2.808
2024-04-23 19:40;2.808
2024-04-23 19:50;2.844
2024-04-23 20:00;2.844
2024-04-23 20:10;2.88
2024-04-23 20:20;2.88
2024-04-23 20:30;2.88
2024-04-23 20:40;2.916
2024-04-23 20:50;2.916
2024-04-23 21:00;2.952
2024-04-23 21:10;2.952
2024-04-23 21:20;2.988
2024-04-23 21:30;2.988
2024-04-23 21:40;3.024
2024-04-23 21:50;3.024
2024-04-23 22:00;3.06
2024-04-23 22:10;3.06
2024-04-23 22:20;3.06
2024-04-23 22:30;3.06
2024-04-23 22:40;3.096
2024-04-23 22:50;3.096
2024-04-23 23:00;3.096
2024-04-23 23:10;3.096
2024-04-23 23:20;3.096
2024-04-23 23:30;3.132
2024-04-23 23:40;3.132
2024-04-23 23:50;3.132
2024-04-24 00:00;3.132
2024-04-24 00:10;3.132
2024-04-24 00:20;3.132
2024-04-24 00:30;3.132
2024-04-24 00:40;3.132
2024-04-24 00:50;3.132
2024-04-24 01:00;3.132
2024-04-24 01:10;3.132
2024-04-24 01:20;3.168
2024-04-24 01:30;3.168
2024-04-24 01:40;3.168
2024-04-24 01:50;3.168
2024-04-24 02:00;3.168
2024-04-24 02:10;3.168
2024-04-24 02:20;3.168
2024-04-24 02:30;3.204
2024-04-24 02:40;3.204
2024-04-24 02:50;3.204
2024-04-24 03:00;3.204
2024-04-24 03:10;3.204
2024-04-24 03:20;3.204
2024-04-24 03:30;3.204
2024-04-24 03:40;3.204
2024-04-24 03:50;3.204
2024-04-24 04:00;3.204
2024-04-24 04:10;3.204
2024-04-24 04:20;3.204
2024-04-24 04:30;3.204
2024-04-24 04:40;3.204
2024-04-24 04:50;3.168
2024-04-24 05:00;3.168
2024-04-24 05:10;3.132
2024-04-24 05:20;3.06
2024-04-24 05:30;2.988
2024-04-24 05:40;2.916
2024-04-24 05:50;2.844
2024-04-24 06:00;2.772
2024-04-24 06:10;2.736
2024-04-24 06:20;2.736
2024-04-24 06:30;2.736
2024-04-24 06:40;2.736
2024-04-24 06:50;2.736
2024-04-24 07:00;2.772
2024-04-24 07:10;2.772
2024-04-24 07:20;2.808
2024-04-24 07:30;2.844
2024-04-24 07:40;2.844
2024-04-24 07:50;2.88
2024-04-24 08:00;2.916
2024-04-24 08:10;2.916
2024-04-24 08:20;2.916
2024-04-24 08:30;2.952
2024-04-24 08:40;2.952
2024-04-24 08:50;2.988
2024-04-24 09:00;2.988
2024-04-24 09:10;3.024
2024-04-24 09:20;3.06
2024-04-24 09:30;3.06
2024-04-24 09:40;3.096
2024-04-24 09:50;3.096
2024-04-24 10:00;3.096
2024-04-24 10:10;3.132
2024-04-24 10:20;3.132
2024-04-24 10:30;3.132
2024-04-24 10:40;3.132
2024-04-24 10:50;3.168
2024-04-24 11:00;3.168
2024-04-24 11:10;3.168
2024-04-24 11:20;3.168
2024-04-24 11:30;3.168
2024-04-24 11:40;3.204
2024-04-24 11:50;3.204
2024-04-24 12:00;3.204
2024-04-24 12:10;3.204
2024-04-24 12:20;3.204
2024-04-24 12:30;3.204
2024-04-24 12:40;3.204
2024-04-24 12:50;3.204
2024-04-24 13:00;3.204
2024-04-24 13:10;3.204
2024-04-24 13:20;3.204
2024-04-24 13:30;3.204
2024-04-24 13:40;3.24
2024-04-24 13:50;3.24
2024-04-24 14:00;3.24
2024-04-24 14:10;3.24
2024-04-24 14:20;3.24
2024-04-24 14:30;3.24
2024-04-24 14:40;3.24
2024-04-24 14:50;3.24
2024-04-24 15:00;3.276
2024-04-24 15:10;3.276
2024-04-24 15:20;3.276
2024-04-24 15:30;3.276
2024-04-24 15:40;3.276
2024-04-24 15:50;3.276
2024-04-24 16:00;3.276
2024-04-24 16:10;3.276
2024-04-24 16:20;3.276
2024-04-24 16:30;3.276
2024-04-24 16:40;3.276
2024-04-24 16:50;3.24
2024-04-24 17:00;3.24
2024-04-24 17:10;3.204
2024-04-24 17:20;3.132
2024-04-24 17:30;3.06
2024-04-24 17:40;2.988
2024-04-24 17:50;2.88
2024-04-24 18:00;2.844
2024-04-24 18:10;2.772
2024-04-24 18:20;2.772
2024-04-24 18:30;2.736
2024-04-24 18:40;2.736
2024-04-24 18:50;2.736
2024-04-24 19:00;2.736
2024-04-24 19:10;2.772
2024-04-24 19:20;2.772
2024-04-24 19:30;2.808
2024-04-24 19:40;2.844
2024-04-24 19:50;2.88
2024-04-24 20:00;2.88
2024-04-24 20:10;2.916
2024-04-24 20:20;2.916
2024-04-24 20:30;2.952
2024-04-24 20:40;2.952
2024-04-24 20:50;2.952
2024-04-24 21:00;2.988
2024-04-24 21:10;2.988
2024-04-24 21:20;3.024
2024-04-24 21:30;3.024
2024-04-24 21:40;3.06
2024-04-24 21:50;3.06
2024-04-24 22:00;3.096
2024-04-24 22:10;3.096
2024-04-24 22:20;3.096
2024-04-24 22:30;3.132
2024-04-24 22:40;3.132
2024-04-24 22:50;3.132
2024-04-24 23:00;3.132
2024-04-24 23:10;3.168
2024-04-24 23:20;3.168
2024-04-24 23:30;3.168
2024-04-24 23:40;3.168
2024-04-24 23:50;3.168
2024-04-25 00:00;3.168
2024-04-25 00:10;3.204
2024-04-25 00:20;3.204
2024-04-25 00:30;3.204